sat.trackr.live / text

‹ back to catalog

MANDRAKE 2 BAKER

NORAD 48908 · 2021-059AF

PAYLOAD ACTIVE UNKNOWN

§ Identity

Operator
Country
US
Launch date
2021-06-30
Launch site
AFETR
Launch vehicle
Mass (kg)
RCS (m²)

External: N2YO · Heavens-Above · Gunter

§ Orbital elements

Epoch: 2026-09-20T11:56:16.941984Z

Period
92.05 min
Inclination
97.6938°
Eccentricity
0.0003042
Mean motion
15.64426335 rev/d
Perigee alt
372.8 km
Apogee alt
376.9 km
Semi-major
6,753.0 km
B*
2.6160e-4
RAAN
104.4294°
Arg perigee
18.4936°
Mean anomaly
341.6432°
Rev number
29,217

§ Raw data

MANDRAKE 2 BAKER1 48908U 21059AF  26263.49741831  .00024990  00000+0  26160-3 0  99932 48908  97.6938 104.4294 0003042  18.4936 341.6432 15.64426335292170

JSON: /api/v1/satellites/48908 · /tle

For live sub-satellite position, see the globe view (requires WebGL).

§ Visibility from observer

Set your observer location to see the next 7 days of passes ≥ 10°. The values pass through the URL so the page stays shareable.

No JS? Fill the form by hand. The geolocation button needs JavaScript.

§ Radio — SatNOGS DB

ModeDescriptionDownlinkUplink
FSK Mode U - Downlink 400.498 MHz

1 transmitter · refreshed weekly from db.satnogs.org